STARLINK-34243, 64361

Orbit data source: Space-Track

STARLINK-34243, 64361 is a payload satellite owned by SpaceX/Seattle (US) in LEO that was launched on Fri, 13 Jun 2025 UTC via an FALCON 9 launch vehicle from the Air Force Western Test Range (AFWTR). Payload-class satellites include a variety of spacecraft equipped with specific instruments for various scientific and technological missions. These include communications satellites like Starlink; space stations such as the ISS; scientific satellites like the Hubble; Earth observation satellites from companies like Planet Labs, Umbra, and HawkEye 360; GPS; miniature CubeSats for education and research; and military/defense satellites.

Loading next visibility...
Identifier
64361, 2025-126T
Orbit
LEO
Country
Flag of USUS
Related business
Manufacturer
SpaceX/Seattle
Mission
Operational Commercial Communications
Bus & Motor
STARLINK V2MO, Unknown motor
Mass
575 kg wet, ~530 kg dry
Launch date (UTC)
2025-06-13 (1 year ago)
Launch vehicle
FALCON 9
Launch site
Air Force Western Test Range (AFWTR)
Object type
Payload
Rocket body
Debris
Shape & HBR
Box + 2 Pan, 17.7 m
Radar Cross Section
36.964 m², Large (>1 m²)

Expand to show TLE details & history
Last TLE update: 13 hours ago

TLE from 13 hours ago
0 STARLINK-34243
1 64361U 25126T   26171.31684130  .00006211  00000-0  52758-3 0  9999
2 64361  70.0011 135.7281 0003671 263.3405  96.7337 14.98347831 56057
Epoch: 2026-06-20T07:36Z
TLE epoch observation values (Epoch: 2026-06-20T07:36:15.088Z)
Latitude
0.00005°
Longitude
113.13205°
Altitude
574.725 km
Speed
7.574 km/s
True Right ascension
09h 02m 54s
True Declination
0° 00' 00"
Sunlit
Object was in daylight at epoch
Visualization orbit readout
Latitude
Unknown
Longitude
Unknown
Altitude
Unknown
Speed
Unknown
Apparent Right ascension
Unknown
Apparent Declination
Unknown
Sunlit
N/A
Visualization observer readout
Local Sidereal Time
07:15:33
Azimuth
Unknown
Elevation
Unknown
Doppler factor
Unknown
Orbital elements
Apogee altitude
572.499 km
Perigee altitude
567.398 km
Semi-major axis
6,948.086 km
Eccentricity
0.00037
Inclination
70.0011°
RAAN
135.7281°
Arg. of periapsis
263.3405°
True anomaly
96.77547°
Mean anomaly
96.7337°
Eccentric anomaly
96.75459°
Mean motion
3.74753 °/min
Orbital period
96.06 mins
BSTAR
0.00052758
Loading maneuver chart data...
Computing Atmospheric mass density...
Loading historical data...
Loading historical data...
Loading historical data...
Loading historical data...
Loading historical data...
Loading historical data...
Loading historical data...

Documentation

Showing up to 5 results
|